GW0641 Weather Reports


time (UTC)temp
C
wind
direction
speed
KPH
gust
KPH
rain 1hr
cm
rain 24hr
cm
rain mn
cm
humidity
%
barometer
mb
20260508043819 5 117 0.0 3.2 0.00 0.03 0.00 82 1013.5
20260508043322 5 143 0.0 3.2 0.00 0.03 0.00 82 1013.4
20260508042840 6 71 0.0 4.8 0.00 0.03 0.00 80 1013.3
20260508042321 6 198 1.6 6.4 0.00 0.03 0.00 78 1013.3
20260508041822 6 241 3.2 6.4 0.00 0.03 0.00 78 1013.2
20260508041344 6 267 1.6 8.0 0.00 0.03 0.00 78 1013.1
20260508040826 6 227 3.2 8.0 0.00 0.03 0.00 78 1013.1
20260508040326 6 281 3.2 4.8 0.00 0.03 0.00 78 1013.1
20260508035818 6 254 1.6 8.0 0.00 0.10 0.03 78 1013.0
20260508035320 6 261 3.2 6.4 0.00 0.10 0.03 80 1013.0
20260508034822 5 239 1.6 4.8 0.00 0.10 0.03 82 1012.9
20260508034323 6 158 0.0 3.2 0.00 0.10 0.03 81 1012.9
20260508033827 6 246 0.0 3.2 0.00 0.10 0.03 80 1012.7
20260508033328 6 267 1.6 3.2 0.00 0.10 0.03 80 1012.8
20260508032811 6 245 1.6 3.2 0.00 0.10 0.03 79 1012.8
20260508032312 6 150 1.6 3.2 0.00 0.10 0.03 78 1012.7
20260508031815 7 237 0.0 3.2 0.00 0.10 0.03 76 1012.7
20260508031316 7 186 0.0 1.6 0.00 0.10 0.03 76 1012.6
20260508030817 7 243 0.0 4.8 0.00 0.10 0.03 75 1012.6
20260508030340 7 287 1.6 6.4 0.00 0.10 0.03 73 1012.5
20260508025815 7 269 3.2 4.8 0.00 0.10 0.03 70 1012.5
20260508025318 7 32 0.0 4.8 0.00 0.10 0.03 74 1012.4
20260508024840 7 53 0.0 4.8 0.00 0.10 0.03 72 1012.4
20260508024320 8 206 1.6 4.8 0.00 0.10 0.03 69 1012.3
20260508023821 8 148 0.0 3.2 0.00 0.10 0.03 71 1012.3
20260508023322 8 133 0.0 3.2 0.00 0.10 0.03 71 1012.2
20260508022843 8 198 0.0 3.2 0.00 0.10 0.03 69 1012.3
20260508022325 9 285 1.6 3.2 0.00 0.10 0.03 67 1012.3
20260508021826 10 198 0.0 1.6 0.00 0.10 0.03 65 1012.1
20260508021328 10 68 0.0 6.4 0.00 0.10 0.03 66 1012.1
20260508020829 10 285 3.2 8.0 0.00 0.10 0.03 64 1012.1
20260508020331 10 307 1.6 8.0 0.00 0.10 0.03 63 1012.0
20260508015830 10 292 0.0 4.8 0.00 0.10 0.03 64 1011.9
20260508015351 10 276 1.6 4.8 0.00 0.10 0.03 66 1011.8
20260508014831 10 254 1.6 8.0 0.00 0.10 0.03 65 1011.8
20260508014314 10 274 3.2 8.0 0.00 0.10 0.03 68 1011.8
20260508013814 10 219 0.0 0.0 0.00 0.10 0.03 67 1011.7
20260508013317 10 160 0.0 3.2 0.00 0.10 0.03 64 1011.7
20260508012819 10 251 0.0 4.8 0.00 0.10 0.03 60 1011.7
20260508012321 10 287 1.6 3.2 0.00 0.10 0.03 62 1011.6
20260508011822 11 221 1.6 3.2 0.00 0.10 0.03 61 1011.5
20260508011305 11 262 0.0 3.2 0.00 0.10 0.03 58 1011.4
20260508010808 12 279 0.0 1.6 0.00 0.10 0.03 56 1011.3
20260508010328 12 283 0.0 3.2 0.00 0.10 0.03 55 1011.2
20260508005807 12 285 0.0 4.8 0.00 0.10 0.03 54 1011.2
20260508005331 12 283 1.6 11.3 0.00 0.10 0.03 52 1011.1
20260508004810 13 291 6.4 14.5 0.00 0.10 0.03 50 1011.0
20260508004314 13 279 3.2 14.5 0.00 0.10 0.03 51 1010.9
20260508003835 13 253 8.0 14.5 0.00 0.10 0.03 51 1010.9
20260508003319 13 269 3.2 12.9 0.00 0.10 0.03 53 1010.7
20260508002842 13 273 1.6 12.9 0.00 0.10 0.03 52 1010.6
20260508002307 13 266 4.8 12.9 0.00 0.10 0.03 51 1010.6
20260508001808 13 45 4.8 12.9 0.00 0.10 0.03 51 1010.6
20260508001328 13 295 3.2 14.5 0.00 0.10 0.03 51 1010.5
20260508000809 14 281 8.0 14.5 0.00 0.10 0.03 50 1010.5
20260508000312 14 288 8.0 17.7 0.00 0.10 0.03 50 1010.4
20260507235811 14 309 11.3 17.7 0.00 0.18 0.03 50 1010.2
20260507235314 14 282 4.8 12.9 0.00 0.18 0.03 51 1010.1
20260507234811 14 296 3.2 12.9 0.00 0.18 0.03 50 1010.2
20260507234312 15 270 4.8 16.1 0.00 0.18 0.03 49 1010.0
20260507233816 15 297 8.0 19.3 0.00 0.18 0.03 48 1009.9
20260507233316 15 288 9.7 19.3 0.00 0.18 0.03 48 1009.8
20260507232820 15 288 3.2 12.9 0.00 0.18 0.03 52 1009.8
20260507232322 15 293 4.8 14.5 0.00 0.18 0.03 49 1009.7
20260507231805 15 258 6.4 14.5 0.00 0.18 0.03 49 1009.6
20260507231309 15 283 4.8 17.7 0.00 0.18 0.03 49 1009.6
20260507230810 16 293 8.0 19.3 0.00 0.18 0.03 45 1009.4
20260507230314 16 268 8.0 20.9 0.00 0.18 0.03 47 1009.4
20260507225813 16 260 9.7 22.5 0.00 0.18 0.03 45 1009.2
20260507225335 16 284 9.7 22.5 0.00 0.18 0.03 47 1009.2
20260507224818 17 319 9.7 16.1 0.00 0.18 0.03 48 1009.1
20260507224340 17 329 11.3 20.9 0.00 0.18 0.03 48 1009.1
20260507223842 17 281 9.7 20.9 0.00 0.18 0.03 46 1009.0
20260507223324 17 306 11.3 20.9 0.00 0.18 0.03 47 1008.9
20260507222341 17 252 4.8 19.3 0.00 0.18 0.03 48 1008.8
20260507221821 17 289 11.3 22.5 0.00 0.18 0.03 44 1008.7
20260507221322 17 288 6.4 22.5 0.00 0.18 0.03 48 1008.5
20260507220825 17 306 4.8 19.3 0.00 0.18 0.03 45 1008.4
20260507220328 17 285 9.7 19.3 0.00 0.18 0.03 45 1008.4
20260507215806 18 302 8.0 20.9 0.00 0.18 0.03 47 1008.3
20260507215307 18 326 11.3 20.9 0.00 0.18 0.03 47 1008.3
20260507214808 18 259 12.9 20.9 0.00 0.18 0.03 45 1008.2
20260507214311 18 285 11.3 19.3 0.00 0.18 0.03 46 1008.0
20260507213814 18 321 8.0 12.9 0.00 0.18 0.03 45 1007.9
20260507213316 18 302 4.8 16.1 0.00 0.18 0.03 46 1007.9
20260507212815 18 153 4.8 20.9 0.00 0.18 0.03 44 1007.9
20260507212317 18 301 11.3 20.9 0.00 0.18 0.03 45 1007.9
20260507211818 18 276 8.0 17.7 0.00 0.18 0.03 48 1007.8
20260507211321 18 286 8.0 22.5 0.00 0.18 0.03 44 1007.7
20260507210823 18 300 8.0 22.5 0.00 0.18 0.03 45 1007.6
20260507210325 19 283 9.7 20.9 0.00 0.18 0.03 45 1007.7
20260507205806 19 309 9.7 20.9 0.00 0.18 0.03 46 1007.6
20260507205307 19 251 6.4 14.5 0.00 0.18 0.03 42 1007.6
20260507204828 19 261 6.4 19.3 0.00 0.18 0.03 46 1007.6
20260507204310 19 279 6.4 20.9 0.00 0.18 0.03 45 1007.5
20260507203812 19 278 8.0 14.5 0.00 0.18 0.03 44 1007.6
20260507203314 19 273 8.0 22.5 0.00 0.18 0.03 46 1007.7
20260507202836 19 243 9.7 22.5 0.00 0.18 0.03 45 1007.7
20260507202317 19 150 3.2 14.5 0.00 0.18 0.03 49 1007.7
20260507201820 18 270 6.4 14.5 0.00 0.18 0.03 53 1007.6
20260507201322 18 312 8.0 14.5 0.00 0.18 0.03 51 1007.7
20260507200823 18 299 8.0 14.5 0.00 0.18 0.03 53 1007.7
20260507200306 18 246 8.0 20.9 0.00 0.18 0.03 51 1007.6
20260507195825 18 298 9.7 20.9 0.00 0.18 0.03 50 1007.6
20260507195306 18 281 12.9 20.9 0.00 0.18 0.03 52 1007.8
20260507194808 18 290 8.0 17.7 0.00 0.18 0.03 53 1008.1
20260507194309 17 345 9.7 17.7 0.00 0.18 0.03 58 1008.0
20260507193813 18 302 4.8 14.5 0.00 0.18 0.03 56 1008.2
20260507193312 18 326 6.4 19.3 0.00 0.18 0.03 56 1008.1
20260507192812 19 236 9.7 17.7 0.00 0.18 0.03 53 1008.0
20260507192310 19 348 6.4 17.7 0.00 0.18 0.03 56 1008.1
20260507191811 18 186 4.8 11.3 0.00 0.18 0.03 59 1008.1
20260507191313 18 218 4.8 12.9 0.00 0.18 0.03 55 1008.3
20260507190815 18 210 4.8 14.5 0.00 0.18 0.03 58 1008.4
20260507190318 18 203 4.8 14.5 0.00 0.18 0.03 60 1008.4
20260507185815 18 257 6.4 12.9 0.00 0.18 0.03 57 1008.5
20260507185317 17 298 4.8 12.9 0.00 0.18 0.03 59 1008.5
20260507184822 17 283 6.4 14.5 0.00 0.18 0.03 61 1008.6
20260507184322 17 263 6.4 14.5 0.00 0.18 0.03 62 1008.7
20260507183843 16 255 4.8 17.7 0.00 0.18 0.03 73 1008.6
20260507183323 17 106 8.0 17.7 0.00 0.18 0.03 77 1008.5
20260507182825 17 108 9.7 16.1 0.00 0.18 0.03 73 1008.7
20260507182343 17 111 6.4 14.5 0.00 0.18 0.03 73 1008.8
20260507181807 16 103 6.4 14.5 0.00 0.18 0.03 73 1008.8
20260507181308 16 130 6.4 11.3 0.00 0.18 0.03 78 1008.8
20260507180809 15 96 8.0 12.9 0.00 0.18 0.03 79 1008.9
20260507180312 15 141 8.0 12.9 0.00 0.18 0.03 79 1008.9
20260507175812 15 196 4.8 12.9 0.00 0.18 0.03 80 1009.0
20260507175314 15 116 6.4 12.9 0.00 0.18 0.03 80 1009.1
20260507174834 15 106 4.8 14.5 0.00 0.18 0.03 80 1009.1
20260507174315 15 120 4.8 14.5 0.00 0.18 0.03 81 1009.1
20260507173819 15 90 6.4 17.7 0.00 0.18 0.03 79 1009.2
20260507173340 15 103 6.4 17.7 0.00 0.18 0.03 80 1009.2
20260507172822 15 96 4.8 16.1 0.00 0.18 0.03 78 1009.4
20260507172343 15 165 6.4 14.5 0.00 0.18 0.03 77 1009.5
20260507171824 15 155 8.0 14.5 0.00 0.18 0.03 78 1009.6
20260507171323 16 84 8.0 14.5 0.00 0.18 0.03 77 1009.6
20260507170825 16 109 3.2 9.7 0.00 0.18 0.03 81 1009.7
20260507170308 15 141 6.4 12.9 0.00 0.18 0.03 77 1009.7
20260507165808 15 105 4.8 12.9 0.00 0.18 0.03 78 1009.9
20260507165310 15 150 6.4 12.9 0.00 0.18 0.03 76 1010.1
20260507164833 15 135 3.2 14.5 0.00 0.18 0.03 77 1010.1
20260507164314 15 90 4.8 14.5 0.00 0.18 0.03 77 1010.1
20260507163836 15 231 3.2 9.7 0.00 0.18 0.03 75 1010.2
20260507163335 14 124 1.6 9.7 0.00 0.18 0.03 75 1010.3
20260507162817 14 84 3.2 8.0 0.00 0.18 0.03 75 1010.4
20260507162319 13 101 4.8 9.7 0.00 0.18 0.03 80 1010.5
20260507161821 13 125 4.8 9.7 0.00 0.18 0.03 76 1010.7
20260507161342 13 115 3.2 9.7 0.00 0.18 0.03 77 1010.7
20260507160824 13 158 3.2 9.7 0.00 0.18 0.03 76 1010.8
20260507160326 14 107 1.6 6.4 0.00 0.18 0.03 76 1010.8
20260507155824 13 94 1.6 4.8 0.00 0.18 0.03 76 1011.0
20260507155326 13 217 0.0 8.0 0.00 0.18 0.03 77 1011.0
20260507154829 13 86 1.6 8.0 0.00 0.18 0.03 77 1011.0
20260507154310 13 98 4.8 6.4 0.00 0.18 0.03 79 1011.1
20260507153811 13 113 1.6 6.4 0.00 0.18 0.03 81 1011.1
20260507153312 13 88 1.6 6.4 0.00 0.18 0.03 82 1011.2
20260507152813 12 23 0.0 1.6 0.00 0.18 0.03 81 1011.3
20260507152316 12 345 0.0 3.2 0.00 0.18 0.03 81 1011.3
20260507151817 12 355 1.6 3.2 0.00 0.18 0.03 80 1011.3
20260507151319 12 247 1.6 3.2 0.00 0.18 0.03 80 1011.5
20260507150821 12 300 0.0 1.6 0.00 0.18 0.03 82 1011.4
20260507150321 12 307 0.0 4.8 0.00 0.18 0.03 82 1011.6
20260507145820 12 307 1.6 9.7 0.00 0.18 0.03 82 1011.4
20260507145321 12 347 6.4 9.7 0.00 0.18 0.03 81 1011.4
20260507144825 12 352 3.2 8.0 0.00 0.18 0.03 81 1011.5
20260507144326 11 356 4.8 9.7 0.00 0.18 0.03 82 1011.5
20260507143807 11 78 0.0 8.0 0.00 0.18 0.03 83 1011.5
20260507143310 11 14 4.8 8.0 0.00 0.18 0.03 83 1011.4
20260507142811 12 72 1.6 3.2 0.00 0.18 0.03 86 1011.5
20260507142334 11 285 1.6 3.2 0.00 0.18 0.03 83 1011.6
20260507141809 11 318 0.0 8.0 0.00 0.18 0.03 84 1011.7
20260507141310 11 312 0.0 8.0 0.00 0.18 0.03 84 1011.8
20260507140812 11 319 3.2 6.4 0.00 0.18 0.03 84 1012.0
20260507140314 11 295 1.6 8.0 0.00 0.18 0.03 85 1012.0
20260507135813 11 262 3.2 8.0 0.00 0.20 0.03 87 1011.9
20260507135317 11 347 0.0 1.6 0.00 0.20 0.03 90 1011.9
20260507134819 11 86 0.0 1.6 0.00 0.20 0.03 91 1011.9
20260507134341 11 86 0.0 0.0 0.00 0.20 0.03 91 1011.9
20260507133822 11 113 0.0 1.6 0.00 0.20 0.03 91 1012.1
20260507133323 11 113 0.0 3.2 0.00 0.20 0.03 90 1012.0
20260507132827 11 127 1.6 3.2 0.00 0.20 0.03 91 1011.9
20260507132348 11 130 0.0 1.6 0.00 0.20 0.03 91 1011.9
20260507131848 11 130 0.0 1.6 0.00 0.20 0.03 91 1012.0
20260507131328 11 130 0.0 3.2 0.00 0.20 0.03 91 1012.0
20260507130810 11 23 0.0 3.2 0.00 0.20 0.03 91 1012.0
20260507130311 11 39 0.0 4.8 0.00 0.20 0.03 91 1011.9
20260507125810 11 32 0.0 4.8 0.00 0.23 0.03 91 1011.9
20260507125311 11 34 3.2 6.4 0.00 0.23 0.03 91 1011.9
20260507124834 11 37 3.2 6.4 0.00 0.23 0.03 91 1011.9
20260507124316 11 28 1.6 6.4 0.00 0.23 0.03 92 1012.1
20260507123840 11 359 3.2 6.4 0.00 0.23 0.03 91 1012.0
20260507123321 11 356 3.2 6.4 0.00 0.23 0.03 91 1012.0
20260507122825 11 25 0.0 8.0 0.00 0.23 0.03 91 1012.0
20260507122325 11 13 0.0 4.8 0.00 0.23 0.03 92 1012.0
20260507121827 11 34 1.6 8.0 0.00 0.23 0.03 92 1011.9
20260507121328 11 27 4.8 8.0 0.00 0.23 0.03 91 1011.9
20260507120810 11 328 3.2 6.4 0.00 0.23 0.03 91 1011.9
20260507120313 11 323 1.6 4.8 0.00 0.23 0.03 92 1011.7
20260507115811 11 330 3.2 11.3 0.00 0.33 0.03 92 1011.7
20260507115313 11 34 4.8 11.3 0.00 0.33 0.03 92 1011.6
20260507114815 11 13 3.2 8.0 0.00 0.33 0.03 92 1011.5
20260507114338 11 39 3.2 4.8 0.00 0.33 0.03 92 1011.5
20260507113818 11 36 0.0 4.8 0.00 0.33 0.03 93 1011.5
20260507113319 11 2 1.6 4.8 0.00 0.33 0.03 93 1011.5
20260507112821 11 105 0.0 1.6 0.00 0.33 0.03 93 1011.6
20260507112323 11 91 0.0 1.6 0.00 0.33 0.03 94 1011.5
20260507111846 11 70 0.0 3.2 0.00 0.33 0.03 94 1011.5
20260507111327 11 70 0.0 3.2 0.00 0.33 0.03 94 1011.3
20260507110830 11 38 0.0 9.7 0.00 0.33 0.03 94 1011.1
20260507110313 11 36 6.4 9.7 0.00 0.33 0.03 94 1011.1
20260507105810 11 347 6.4 9.7 0.00 0.36 0.03 94 1011.3
20260507105313 11 54 3.2 9.7 0.00 0.36 0.03 94 1011.1
20260507104813 11 24 3.2 9.7 0.00 0.36 0.03 94 1010.9
20260507104335 11 350 0.0 1.6 0.00 0.36 0.03 95 1010.9
20260507103836 11 273 0.0 0.0 0.00 0.36 0.03 94 1010.8
20260507103335 11 273 0.0 0.0 0.00 0.36 0.03 94 1010.7
20260507102815 12 274 0.0 0.0 0.00 0.36 0.03 94 1010.6
20260507102319 12 274 0.0 1.6 0.00 0.36 0.03 94 1010.7
20260507101819 11 274 0.0 3.2 0.00 0.36 0.03 94 1010.7
20260507101341 11 251 1.6 3.2 0.00 0.36 0.03 95 1010.6
20260507100821 11 342 0.0 3.2 0.00 0.36 0.03 95 1010.6
20260507100324 11 309 0.0 3.2 0.00 0.36 0.03 95 1010.7
20260507095823 11 257 0.0 0.0 0.00 0.36 0.03 95 1010.8
20260507095327 11 257 0.0 1.6 0.00 0.36 0.03 95 1010.6
20260507094827 11 257 0.0 1.6 0.00 0.36 0.03 95 1010.6
20260507094330 11 257 0.0 1.6 0.00 0.36 0.03 94 1010.6
20260507093829 11 257 0.0 1.6 0.00 0.36 0.03 95 1010.4
20260507093331 11 257 0.0 1.6 0.00 0.36 0.03 95 1010.3
20260507092833 11 259 1.6 1.6 0.00 0.36 0.03 95 1010.5
20260507092313 11 245 1.6 1.6 0.00 0.36 0.03 95 1010.7
20260507091815 11 245 1.6 3.2 0.00 0.36 0.03 95 1010.6
20260507091316 12 245 1.6 3.2 0.00 0.36 0.03 95 1010.5
20260507090818 12 266 1.6 3.2 0.00 0.36 0.03 94 1010.4
20260507090321 12 255 0.0 6.4 0.00 0.36 0.03 94 1010.4
20260507085840 12 260 3.2 6.4 0.00 0.36 0.03 94 1010.6
20260507085322 12 260 4.8 6.4 0.00 0.36 0.03 95 1010.5
20260507084824 12 264 3.2 6.4 0.00 0.36 0.03 95 1010.5
20260507084346 12 243 0.0 8.0 0.00 0.36 0.03 95 1010.4
20260507083827 12 262 4.8 8.0 0.00 0.36 0.03 96 1010.4
20260507083328 12 261 3.2 6.4 0.00 0.36 0.03 96 1010.3
20260507082810 12 264 1.6 4.8 0.00 0.36 0.03 96 1010.3
20260507082329 12 263 3.2 4.8 0.00 0.36 0.03 96 1010.3
20260507081831 12 289 1.6 3.2 0.00 0.36 0.03 96 1010.1
20260507081312 12 285 0.0 1.6 0.00 0.36 0.03 96 1010.0
20260507080814 12 257 0.0 0.0 0.00 0.36 0.03 96 1010.2
20260507080317 12 257 0.0 0.0 0.00 0.36 0.03 96 1010.2
20260507075816 12 257 0.0 0.0 0.00 0.36 0.03 97 1010.3
20260507075318 13 257 0.0 0.0 0.00 0.36 0.03 97 1010.3
20260507074821 13 257 0.0 0.0 0.00 0.36 0.03 97 1010.4
20260507074322 13 257 0.0 1.6 0.00 0.36 0.03 97 1010.4
20260507073825 13 258 0.0 1.6 0.00 0.36 0.03 97 1010.4
20260507073325 13 258 0.0 1.6 0.00 0.36 0.03 97 1010.5
20260507072848 13 258 1.6 1.6 0.00 0.36 0.03 97 1010.3
20260507072328 13 255 0.0 0.0 0.00 0.36 0.03 97 1010.3
20260507071829 13 255 0.0 0.0 0.00 0.36 0.03 97 1010.3
20260507071312 13 255 0.0 1.6 0.00 0.36 0.03 97 1010.4
20260507070835 13 253 0.0 3.2 0.00 0.36 0.03 97 1010.5
20260507070317 13 252 1.6 3.2 0.00 0.36 0.03 97 1010.4
20260507065815 13 271 0.0 1.6 0.00 0.36 0.03 97 1010.3
20260507065318 13 18 0.0 0.0 0.00 0.36 0.03 96 1009.9
20260507064821 13 18 0.0 0.0 0.00 0.36 0.03 97 1009.9
20260507064323 13 20 0.0 0.0 0.00 0.36 0.03 96 1009.9
20260507063824 13 20 0.0 1.6 0.00 0.36 0.03 96 1010.2
20260507063326 13 20 0.0 3.2 0.00 0.36 0.03 96 1010.0
20260507062848 14 8 1.6 3.2 0.00 0.36 0.03 95 1010.2
20260507062328 13 131 0.0 1.6 0.00 0.36 0.03 96 1010.3
20260507061829 13 134 0.0 1.6 0.00 0.36 0.03 96 1010.2
20260507061350 14 135 0.0 1.6 0.00 0.36 0.03 95 1010.5
20260507060811 14 135 0.0 1.6 0.00 0.36 0.03 95 1010.4
20260507060314 14 135 0.0 1.6 0.00 0.36 0.03 95 1010.3
20260507055829 14 135 0.0 1.6 0.00 0.36 0.03 94 1010.2
20260507055311 14 24 0.0 1.6 0.00 0.36 0.03 94 1010.3
20260507054831 14 24 0.0 1.6 0.00 0.36 0.03 94 1010.4
20260507054330 15 23 0.0 1.6 0.00 0.36 0.03 94 1010.6
20260507053811 15 25 0.0 1.6 0.00 0.36 0.03 93 1010.6
20260507053313 15 341 0.0 1.6 0.00 0.36 0.03 93 1010.7
20260507052814 15 341 0.0 1.6 0.00 0.36 0.03 94 1010.6
20260507052316 14 111 0.0 4.8 0.00 0.36 0.03 95 1010.4
20260507051838 14 101 3.2 4.8 0.00 0.36 0.03 96 1010.4
20260507051319 14 280 1.6 4.8 0.00 0.36 0.03 96 1010.9
20260507050820 14 212 1.6 4.8 0.00 0.36 0.03 96 1010.7
20260507050322 14 106 0.0 1.6 0.03 0.36 0.03 96 1010.4
20260507045823 14 96 0.0 1.6 0.03 0.36 0.03 96 1010.4
20260507045324 14 96 0.0 1.6 0.03 0.36 0.03 96 1010.3
20260507044826 14 95 0.0 1.6 0.03 0.36 0.03 95 1010.0
20260507044326 15 252 0.0 1.6 0.03 0.36 0.03 95 1010.2